Location: Nashville
(36.1660°N, 86.7840°W)
Time: 05:54:54
(UTC-06:00)

S-56A Canister/Altair - Visible Passes

Search period start: 19 January 2022 00:00
Search period end: 29 January 2022 00:00
Orbit: 633 x 2499 km, 38.9° (Epoch: 18 January)

Date Brightness Start Highest point End Pass type
(mag) Time Alt. Az. Time Alt. Az. Time Alt. Az.
19 Jan 12.3 17:57:46 10° WSW 18:02:28 12° SW 18:07:27 10° SSW visible
20 Jan 12.2 17:23:15 10° WSW 17:29:18 15° SW 17:35:58 10° SSW visible
22 Jan 10.6 06:00:40 10° SE 06:01:00 10° SE 06:01:20 10° SE visible
25 Jan 9.0 06:22:22 10° SSW 06:26:21 33° SSE 06:30:49 10° E visible
26 Jan 9.2 05:50:11 10° SSW 05:53:56 27° SSE 05:57:55 10° E visible
27 Jan 9.3 05:18:01 10° SSW 05:21:31 22° SE 05:25:03 10° E visible
28 Jan 9.5 04:46:03 11° S 04:49:05 18° SE 04:52:10 10° E visible
